Zurück zum Katalog

METEOR 2-17 DEB

AktivPO
NORAD 38541·DEBRIS·🇷🇺 Russia

Gestartet Jan 30, 1988 von Plesetsk Cosmodrome

Loading…

Nächste Überflüge (nächste 24 Stunden)

TLE

AlterndSource: Space-Track

Epoche: Sep 4, 2026, 01:49 UTC

1 38541U 88005AU  26247.07605299  .00001347  00000-0  72334-3 0  9998
2 38541  82.5167 163.5638 0006181 345.6714  14.4285 14.12332814670769

Verfolge METEOR 2-17 DEB in Echtzeit mit AllMySat

Download on the App Store